Wainwright, AK

7:38 AM AKDT on September 23, 2017 (GMT -0800)
Wainwright

Weather History for PAWI - December, 2012

Change the Weather History Date:

Saturday, December 29, 2012

  Actual Average (PABR) Record (PABR)
Temperature  
Mean Temperature -16 °F -  
Max Temperature -14 °F -1 °F 27 °F (1967)
Min Temperature -17 °F -14 °F -44 °F (1974)
Degree Days  
Heating Degree Days 80    
Moisture  
Dew Point -22 °F    
Average Humidity 73    
Maximum Humidity 79    
Minimum Humidity 64    
Precipitation  
Precipitation 0.00 in - - ()
Sea Level Pressure  
Sea Level Pressure 29.97 in    
Wind  
Wind Speed 12 mph (East)    
Max Wind Speed 18 mph    
Max Gust Speed -    
Visibility 5 miles    
Events      
Averages and records for this station are not official NWS values.
T = Trace of Precipitation, MM = Missing Value Source: NWS Daily Summary

Daily Weather History Graph

Daily Weather History Graph

Search for Another Location

Airport or City:

Trip Planner

Search our weather history database for the weather conditions in past years. The results will help you decide how hot, cold, wet, or windy it might be!

Date:

Astronomy

Dec. 31, 1969 Rise Set
Actual Time Sun does not set Sun does not set
Civil Twilight 11:46 AM AKST 3:39 PM AKST
Nautical Twilight 9:51 AM AKST 5:33 PM AKST
Astronomical Twilight 8:29 AM AKST 6:55 PM AKST
Moon 5:14 PM AKST (12/29) 12:42 PM AKST (12/29)
Length of Visible Light 3h 52m
Length of Day
0h 00m
Full, 98% of the Moon is Illuminated
Dec 29
Full
Jan 4
Last Quarter
Jan 11
New
Jan 18
First Quarter
Jan 26
Full

Hourly Weather History & Observations

Time (AKST) Temp. Windchill Dew Point Humidity Pressure Visibility Wind Dir Wind Speed Gust Speed Precip Events Conditions
12:01 AM -14.8 °F -35.6 °F -20.2 °F 77% 30.05 in 10.0 mi East 11.5 mph - N/A   Scattered Clouds
3:53 AM -17.0 °F -34.8 °F -22.0 °F 78% 30.04 in 10.0 mi ENE 8.1 mph - N/A   Mostly Cloudy
4:33 AM -16.6 °F -36.8 °F -23.8 °F 70% 30.02 in 10.0 mi ENE 10.4 mph - N/A   Partly Cloudy
4:53 AM -17.0 °F -36.1 °F -23.1 °F 74% 30.02 in 10.0 mi ENE 9.2 mph - N/A   Clear
5:53 AM -17.0 °F -34.8 °F -23.1 °F 74% 30.00 in 10.0 mi ENE 8.1 mph - N/A   Clear
6:53 AM -16.1 °F -35.0 °F -22.0 °F 74% 29.99 in 5.0 mi East 9.2 mph - N/A   Haze
7:03 AM -14.8 °F -30.8 °F -22.0 °F 70% 29.99 in 1.5 mi East 6.9 mph - N/A   Haze
7:14 AM -14.8 °F -38.3 °F -23.8 °F 64% 29.98 in 3.0 mi East 15.0 mph - N/A   Haze
7:53 AM -15.0 °F -37.7 °F -22.0 °F 71% 29.97 in 8.0 mi East 13.8 mph - N/A   Clear
8:53 AM -16.1 °F -36.2 °F -20.9 °F 79% 29.96 in 10.0 mi East 10.4 mph - N/A   Clear
10:53 AM -15.0 °F -37.7 °F -20.9 °F 75% 29.96 in 4.0 mi East 13.8 mph - N/A   Haze
11:01 AM -14.8 °F -37.5 °F -20.2 °F 77% 29.96 in 2.5 mi East 13.8 mph - N/A   Haze
11:20 AM -14.8 °F -36.6 °F -20.2 °F 77% 29.95 in 3.0 mi East 12.7 mph - N/A   Haze
11:53 AM -16.1 °F -39.1 °F -22.0 °F 74% 29.96 in 5.0 mi East 13.8 mph - N/A   Haze
12:10 PM -14.8 °F -37.5 °F -22.0 °F 70% 29.95 in 2.5 mi East 13.8 mph - N/A   Haze
12:18 PM -14.8 °F -36.6 °F -22.0 °F 70% 29.96 in 3.0 mi East 12.7 mph - N/A   Haze
12:38 PM -16.6 °F -38.9 °F -22.0 °F 76% 29.95 in 3.0 mi East 12.7 mph - N/A   Haze
12:44 PM -14.8 °F -37.5 °F -22.0 °F 70% 29.95 in 2.5 mi East 13.8 mph - N/A   Haze
12:53 PM -15.0 °F -36.8 °F -22.0 °F 71% 29.95 in 2.5 mi East 12.7 mph - N/A   Haze
1:53 PM -15.0 °F -39.3 °F -20.9 °F 75% 29.95 in 2.0 mi East 16.1 mph - N/A   Haze
2:17 PM -14.8 °F -39.1 °F -20.2 °F 77% 29.94 in 1.8 mi East 16.1 mph - N/A   Haze
2:40 PM -14.8 °F -38.3 °F -20.2 °F 77% 29.94 in 2.0 mi East 15.0 mph - N/A   Haze
2:53 PM -14.1 °F -36.6 °F -20.9 °F 71% 29.94 in 2.0 mi East 13.8 mph - N/A   Haze
3:36 PM -14.8 °F -39.8 °F -20.2 °F 77% 29.94 in 1.8 mi East 17.3 mph - N/A   Haze
3:53 PM -14.1 °F -38.9 °F -20.9 °F 71% 29.94 in 1.2 mi East 17.3 mph - N/A   Haze
4:53 PM -14.1 °F -39.6 °F -20.9 °F 71% 29.94 in 2.0 mi East 18.4 mph - N/A   Haze
5:49 PM -14.8 °F -38.3 °F -20.2 °F 77% 29.95 in 1.8 mi East 15.0 mph - N/A   Haze
5:53 PM -15.0 °F -37.7 °F -20.9 °F 75% 29.95 in 1.5 mi East 13.8 mph - N/A   Haze
6:53 PM -15.0 °F -39.3 °F -22.0 °F 71% 29.96 in 1.8 mi East 16.1 mph - N/A   Haze
7:02 PM -16.6 °F -39.8 °F -22.0 °F 76% 29.95 in 2.5 mi East 13.8 mph - N/A   Haze
7:07 PM -16.6 °F -39.8 °F -22.0 °F 76% 29.95 in 3.0 mi East 13.8 mph - N/A   Haze
7:53 PM -16.1 °F -37.2 °F -23.1 °F 71% 29.96 in 10.0 mi East 11.5 mph - N/A   Clear
8:53 PM -16.1 °F -38.2 °F -22.0 °F 74% 29.96 in 7.0 mi East 12.7 mph - N/A   Clear
9:17 PM -14.8 °F -37.5 °F -22.0 °F 70% 29.97 in 3.0 mi East 13.8 mph - N/A   Haze
9:20 PM -14.8 °F -37.5 °F -22.0 °F 70% 29.97 in 2.5 mi East 13.8 mph - N/A   Haze
9:53 PM -17.0 °F -39.3 °F -23.1 °F 74% 29.98 in 10.0 mi ESE 12.7 mph - N/A   Clear
10:53 PM -16.1 °F -39.9 °F -22.0 °F 74% 29.97 in 10.0 mi East 15.0 mph - N/A   Clear
11:53 PM -16.1 °F -40.7 °F -22.0 °F 74% 29.97 in 2.5 mi East 16.1 mph - N/A   Haze